Regional Weather Roundup
Issued by NWS

Home | Current Version | Previous Version | Text Only | Print | Product List | Glossary On
Versions: 1 2 3 4 5 6 7 8 9 10 11 12 13 14 15 16 17 18 19 20 21 22 23 24 25 26 27 28 29 30 31 32 33 34 35 36 37 38 39 40 41 42 43 44 45 46 47 48 49 50
812
ASUS43 KLSX 211357
RWRMO

WEATHER SUMMARY FOR MISSOURI
NATIONAL WEATHER SERVICE SPRINGFIELD MO
800 AM CST SAT JAN 21 2017

NOTE: "FAIR" INDICATES FEW OR NO CLOUDS BELOW 12,000 FEET WITH NO
       SIGNIFICANT WEATHER AND/OR OBSTRUCTIONS TO VISIBILITY.
       CURRENT SKY AND/OR WEATHER CONDITIONS ARE NOT AVAILABLE FOR
       CHILLICOTHE AND FARMINGTON.

MOZ001>031-035>038-043-044-053-054-211500-
...NORTHERN AND WESTERN MISSOURI...

CITY           SKY/WX    TMP DP  RH WIND       PRES   REMARKS
KANSAS CTY INT FOG       41  39  93 SW6       29.48R VSB 1/8
LEE`S SUMMIT   FOG       39  39 100 S9        29.51R VSB 1/4
ST JOSEPH      FOG       41  41 100 SW7       29.46S VSB 3/4
CHILLICOTHE      N/A     40  40 100 SE5       29.48R

$$
MOZ066>068-077>081-088>096-101>105-211500-
...SOUTHWEST MISSOURI...

CITY           SKY/WX    TMP DP  RH WIND       PRES   REMARKS
SPRINGFIELD    CLEAR     41  34  76 S5        29.56R
JOPLIN         CLEAR     41  35  79 S6        29.56R
BRANSON        CLEAR     50  39  66 S6        29.58R

$$
MOZ032>034-039>042-045>050-055>058-069>072-211500-
...CENTRAL MISSOURI...

CITY           SKY/WX    TMP DP  RH WIND       PRES   REMARKS
COLUMBIA       NOT AVBL
JEFFERSON CITY CLEAR     48  38  68 CALM      29.53R
ROLLA          CLEAR     49  42  77 SW10      29.54R
SEDALIA        CLEAR     45  38  76 SW13G20   29.52S
WARRENSBURG    PTCLDY    41  37  87 S8        29.52S

$$
MOZ051-052-059>065-211500-
...EAST CENTRAL MISSOURI...

CITY           SKY/WX    TMP DP  RH WIND       PRES   REMARKS
ST LOUIS INTL  MOCLDY    51  45  79 S6        29.55R
ST CHARLES     CLEAR     39  39 100 NE5       29.53R FOG

$$
MOZ072>076-082>087-097>100-106>115-211500-
...SOUTH CENTRAL AND SOUTHEAST MISSOURI...

CITY           SKY/WX    TMP DP  RH WIND       PRES   REMARKS
CAPE GIRARDEAU CLOUDY    56  51  84 S10       29.61F
POPLAR BLUFF   CLOUDY    47  46  97 SW3       29.61S
WEST PLAINS    PTCLDY    43  42  97 CALM      29.60R

$$



USA.gov is the U.S. government's official web portal to all federal, state and local government web resources and services.